Location: Unspecified
(51.0950°N, 12.9690°E)
Time: 15:39:07
(UTC+00:00)

In-Cosmos 22 Rocket - Pass Details

Date: 28 October 2021
Orbit: 790 x 888 km, 81.2° (Epoch: 27 November)

Event Time Altitude Azimuth Distance (km) Brightness Sun altitude
Rises 17:28:31 0° 345° (NNW) 3,305 7.5 -16.1°
Reaches altitude 10° 17:30:55 10° 343° (NNW) 2,368 6.7 -16.5°
Maximum altitude 17:36:12 69° 262° (W) 847 4.4 -17.3°
Drops below altitude 10° 17:41:29 10° 179° (S) 2,363 6.5 -18.1°
Sets 17:43:52 0° 177° (S) 3,298 7.2 -18.5°
